Satellite: SO-50
Catalog number: 27607
Epoch time:      12081.82115404
Element set:     718
Inclination:      064.5571 deg
RA of node:       200.6425 deg
Eccentricity:    0.0085021
Arg of perigee:   265.7818 deg
Mean anomaly:     093.3564 deg
Mean motion:   14.72268798 rev/day
Decay rate:       6.20e-06 rev/day^2
Epoch rev:           49710
Checksum:              303

Satellite: CO-55
Catalog number: 27844
Epoch time:      12080.06123566
Element set:     333
Inclination:      098.7046 deg
RA of node:       089.7336 deg
Eccentricity:    0.0010658
Arg of perigee:   117.9533 deg
Mean anomaly:     242.2724 deg
Mean motion:   14.20977122 rev/day
Decay rate:       -4.4e-07 rev/day^2
Epoch rev:           45223
Checksum:              297

Satellite: CO-57
Catalog number: 27848
Epoch time:      12082.58478963
Element set:     285
Inclination:      098.7141 deg
RA of node:       091.5165 deg
Eccentricity:    0.0010507
Arg of perigee:   114.8401 deg
Mean anomaly:     245.3867 deg
Mean motion:   14.20737890 rev/day
Decay rate:       1.95e-06 rev/day^2
Epoch rev:           45253
Checksum:              328

Satellite: AO-51
Catalog number: 28375
Epoch time:      12081.79395557
Element set:     222
Inclination:      098.1364 deg
RA of node:       051.1825 deg
Eccentricity:    0.0083616
Arg of perigee:   306.5050 deg
Mean anomaly:     052.8464 deg
Mean motion:   14.40915588 rev/day
Decay rate:       2.83e-06 rev/day^2
Epoch rev:           40618
Checksum:              311

Satellite: CP3
Catalog number: 31129
Epoch time:      12082.72825625
Element set:     121
Inclination:      097.8863 deg
RA of node:       095.5927 deg
Eccentricity:    0.0101699
Arg of perigee:   032.8990 deg
Mean anomaly:     327.8443 deg
Mean motion:   14.52945544 rev/day
Decay rate:       5.97e-06 rev/day^2
Epoch rev:           26142
Checksum:              327

Satellite: CO-65
Catalog number: 32785
Epoch time:      12082.73833753
Element set:     260
Inclination:      097.8096 deg
RA of node:       145.8098 deg
Eccentricity:    0.0014564
Arg of perigee:   349.0047 deg
Mean anomaly:     011.0843 deg
Mean motion:   14.82772004 rev/day
Decay rate:      1.050e-05 rev/day^2
Epoch rev:           21095
Checksum:              301

Satellite: PRISM
Catalog number: 33493
Epoch time:      12082.73301633
Element set:     537
Inclination:      098.1573 deg
RA of node:       221.3321 deg
Eccentricity:    0.0018683
Arg of perigee:   214.0642 deg
Mean anomaly:     145.9347 deg
Mean motion:   14.83403983 rev/day
Decay rate:      3.033e-05 rev/day^2
Epoch rev:           17093
Checksum:              281

Satellite: SOHLA-1
Catalog number: 33496
Epoch time:      12082.85875667
Element set:     681
Inclination:      098.0955 deg
RA of node:       195.2148 deg
Eccentricity:    0.0005973
Arg of perigee:   322.8075 deg
Mean anomaly:     037.2707 deg
Mean motion:   14.69898082 rev/day
Decay rate:       1.89e-06 rev/day^2
Epoch rev:           16956
Checksum:              359

Satellite: SO-67
Catalog number: 35870
Epoch time:      12082.81280956
Element set:     794
Inclination:      097.2432 deg
RA of node:       121.5975 deg
Eccentricity:    0.0003750
Arg of perigee:   101.5953 deg
Mean anomaly:     014.9714 deg
Mean motion:   15.23079297 rev/day
Decay rate:      3.771e-05 rev/day^2
Epoch rev:           13946
Checksum:              325

Satellite: TISAT-1
Catalog number: 36799
Epoch time:      12082.23195446
Element set:     812
Inclination:      098.0681 deg
RA of node:       157.9321 deg
Eccentricity:    0.0016429
Arg of perigee:   094.4580 deg
Mean anomaly:     265.8482 deg
Mean motion:   14.81647451 rev/day
Decay rate:      1.952e-05 rev/day^2
Epoch rev:            9161
Checksum:              324

Satellite: STUDSAT
Catalog number: 36801
Epoch time:      12081.88265004
Element set:    0370
Inclination:      098.0746 deg
RA of node:       157.9468 deg
Eccentricity:    0.0014074
Arg of perigee:   084.0761 deg
Mean anomaly:     276.1965 deg
Mean motion:   14.83464663 rev/day
Decay rate:      5.729e-05 rev/day^2
Epoch rev:           09157
Checksum:              323

Satellite: FO-69
Catalog number: 37227
Epoch time:      12046.04422040
Element set:    0103
Inclination:      071.9672 deg
RA of node:       223.6606 deg
Eccentricity:    0.0017759
Arg of perigee:   195.0744 deg
Mean anomaly:     164.9889 deg
Mean motion:   14.76923927 rev/day
Decay rate:       3.30e-06 rev/day^2
Epoch rev:           01791
Checksum:              314

Satellite: FO-70
Catalog number: 37380
Epoch time:      12046.50349291
Element set:    0106
Inclination:      071.9705 deg
RA of node:       223.0530 deg
Eccentricity:    0.0018152
Arg of perigee:   191.1227 deg
Mean anomaly:     168.9536 deg
Mean motion:   14.76682035 rev/day
Decay rate:       3.31e-06 rev/day^2
Epoch rev:           01787
Checksum:              285

Satellite: ALMASAT-1
Catalog number: 38078
Epoch time:      12082.79039354
Element set:      54
Inclination:      069.4904 deg
RA of node:       152.5198 deg
Eccentricity:    0.0772678
Arg of perigee:   356.4992 deg
Mean anomaly:     003.0878 deg
Mean motion:   14.05809699 rev/day
Decay rate:     1.7029e-04 rev/day^2
Epoch rev:             539
Checksum:              348

